| time (UTC) | temp F | wind direction | speed MPH | gust MPH | rain 1hr in | rain 24hr in | rain mn in | humidity % | barometer mb |
| 20260505213115 | 75 | 171 | 7.0 | 10.0 | 0.00 | 0.00 | 0.00 | 21 | 1010.8 |
| 20260505212115 | 74 | 205 | 11.0 | 18.0 | 0.00 | 0.00 | 0.00 | 21 | 1010.8 |
| 20260505211132 | 72 | 206 | 5.0 | 7.0 | 0.00 | 0.00 | 0.00 | 22 | 1011.1 |
| 20260505210130 | 72 | 312 | 2.0 | 4.0 | 0.00 | 0.00 | 0.00 | 22 | 1011.3 |
| 20260505205116 | 72 | 355 | 2.0 | 4.0 | 0.00 | 0.00 | 0.00 | 23 | 1011.4 |
| 20260505204114 | 72 | 246 | 3.0 | 6.0 | 0.00 | 0.00 | 0.00 | 24 | 1011.6 |
| 20260505202131 | 70 | 13 | 3.0 | 5.0 | 0.00 | 0.00 | 0.00 | 25 | 1011.7 |
| 20260505201215 | 69 | 253 | 3.0 | 6.0 | 0.00 | 0.00 | 0.00 | 26 | 1012.0 |
| 20260505200315 | 70 | 327 | 4.0 | 8.0 | 0.00 | 0.00 | 0.00 | 26 | 1012.0 |
| 20260505195331 | 70 | 224 | 3.0 | 5.0 | 0.00 | 0.00 | 0.00 | 25 | 1012.0 |
| 20260505194316 | 71 | 64 | 4.0 | 5.0 | 0.00 | 0.00 | 0.00 | 24 | 1012.0 |
| 20260505193330 | 73 | 204 | 7.0 | 11.0 | 0.00 | 0.00 | 0.00 | 23 | 1012.0 |
| 20260505192414 | 72 | 349 | 2.0 | 4.0 | 0.00 | 0.00 | 0.00 | 24 | 1012.2 |
| 20260505191417 | 71 | 67 | 4.0 | 7.0 | 0.00 | 0.00 | 0.00 | 24 | 1012.1 |
| 20260505185416 | 70 | 323 | 1.0 | 4.0 | 0.00 | 0.00 | 0.00 | 25 | 1012.4 |
| 20260505183516 | 70 | 271 | 1.0 | 5.0 | 0.00 | 0.00 | 0.00 | 25 | 1012.7 |
| 20260505182515 | 70 | 56 | 1.0 | 4.0 | 0.00 | 0.00 | 0.00 | 25 | 1012.5 |
| 20260505181517 | 71 | 46 | 5.0 | 7.0 | 0.00 | 0.00 | 0.00 | 25 | 1012.5 |
| 20260505180417 | 70 | 347 | 0.0 | 2.0 | 0.00 | 0.00 | 0.00 | 26 | 1012.8 |
| 20260505175430 | 69 | 160 | 1.0 | 4.0 | 0.00 | 0.00 | 0.00 | 26 | 1012.7 |
| 20260505175329 | 68 | 143 | 3.0 | 6.0 | 0.00 | 0.00 | 0.00 | 26 | 1012.8 |
| 20260505175230 | 68 | 112 | 3.0 | 4.0 | 0.00 | 0.00 | 0.00 | 25 | 1012.7 |
| 20260505174315 | 69 | 103 | 4.0 | 6.0 | 0.00 | 0.00 | 0.00 | 26 | 1012.9 |
| 20260505173414 | 70 | 82 | 1.0 | 3.0 | 0.00 | 0.00 | 0.00 | 26 | 1013.1 |
| 20260505172415 | 67 | 224 | 0.0 | 2.0 | 0.00 | 0.00 | 0.00 | 28 | 1013.1 |
| 20260505171514 | 68 | 272 | 3.0 | 5.0 | 0.00 | 0.00 | 0.00 | 27 | 1013.1 |
| 20260505165514 | 68 | 297 | 4.0 | 5.0 | 0.00 | 0.00 | 0.00 | 27 | 1013.2 |
| 20260505164516 | 68 | 157 | 1.0 | 3.0 | 0.00 | 0.00 | 0.00 | 27 | 1013.1 |
| 20260505162530 | 66 | 111 | 2.0 | 4.0 | 0.00 | 0.00 | 0.00 | 27 | 1013.3 |
| 20260505161616 | 66 | 337 | 0.0 | 3.0 | 0.00 | 0.00 | 0.00 | 26 | 1013.4 |
| 20260505160614 | 66 | 71 | 2.0 | 5.0 | 0.00 | 0.00 | 0.00 | 27 | 1013.4 |
| 20260505152715 | 63 | 93 | 1.0 | 4.0 | 0.00 | 0.00 | 0.00 | 27 | 1013.7 |
| 20260505150830 | 64 | 180 | 0.0 | 2.0 | 0.00 | 0.00 | 0.00 | 29 | 1013.8 |
| 20260505140114 | 56 | 202 | 0.0 | 1.0 | 0.00 | 0.00 | 0.00 | 44 | 1013.8 |
| 20260505124516 | 48 | 360 | 3.0 | 6.0 | 0.00 | 0.00 | 0.00 | 55 | 1013.0 |
| 20260505123430 | 48 | 22 | 0.0 | 0.0 | 0.00 | 0.00 | 0.00 | 54 | 1012.8 |
| 20260505122516 | 49 | 22 | 0.0 | 0.0 | 0.00 | 0.00 | 0.00 | 53 | 1012.9 |
| 20260505121615 | 49 | 22 | 0.0 | 0.0 | 0.00 | 0.00 | 0.00 | 50 | 1012.8 |
| 20260505120615 | 49 | 22 | 0.0 | 0.0 | 0.00 | 0.00 | 0.00 | 50 | 1012.8 |
| 20260505115614 | 49 | 360 | 5.0 | 6.0 | 0.00 | 0.00 | 0.00 | 52 | 1012.7 |
| 20260505114614 | 50 | 22 | 4.0 | 5.0 | 0.00 | 0.00 | 0.00 | 51 | 1012.8 |
| 20260505113630 | 50 | 22 | 0.0 | 1.0 | 0.00 | 0.00 | 0.00 | 51 | 1012.8 |
| 20260505112714 | 49 | 22 | 1.0 | 3.0 | 0.00 | 0.00 | 0.00 | 50 | 1012.8 |
| 20260505112631 | 49 | 22 | 0.0 | 2.0 | 0.00 | 0.00 | 0.00 | 51 | 1012.9 |
| 20260505111713 | 50 | 1 | 1.0 | 3.0 | 0.00 | 0.00 | 0.00 | 50 | 1012.8 |
| 20260505110731 | 50 | 270 | 2.0 | 4.0 | 0.00 | 0.00 | 0.00 | 50 | 1012.6 |
| 20260505101814 | 51 | 135 | 0.0 | 0.0 | 0.00 | 0.00 | 0.00 | 46 | 1012.6 |
| 20260505100831 | 51 | 202 | 0.0 | 0.0 | 0.00 | 0.00 | 0.00 | 45 | 1012.4 |
| 20260505095913 | 52 | 202 | 0.0 | 0.0 | 0.00 | 0.00 | 0.00 | 45 | 1012.5 |
| 20260505094932 | 53 | 247 | 0.0 | 0.0 | 0.00 | 0.00 | 0.00 | 42 | 1012.4 |
| 20260505093915 | 53 | 247 | 0.0 | 0.0 | 0.00 | 0.00 | 0.00 | 43 | 1012.4 |
| 20260505093014 | 53 | 22 | 1.0 | 2.0 | 0.00 | 0.00 | 0.00 | 44 | 1012.4 |
| 20260505092931 | 53 | 22 | 2.0 | 3.0 | 0.00 | 0.00 | 0.00 | 44 | 1012.4 |
| 20260505091931 | 53 | 360 | 0.0 | 0.0 | 0.00 | 0.00 | 0.00 | 43 | 1012.5 |
| 20260505091014 | 53 | 360 | 0.0 | 0.0 | 0.00 | 0.00 | 0.00 | 41 | 1012.5 |
| 20260505090113 | 53 | 225 | 0.0 | 0.0 | 0.00 | 0.00 | 0.00 | 41 | 1012.4 |
| 20260505085131 | 54 | 337 | 0.0 | 0.0 | 0.00 | 0.00 | 0.00 | 40 | 1012.5 |
| 20260505084116 | 54 | 337 | 0.0 | 2.0 | 0.00 | 0.00 | 0.00 | 41 | 1012.7 |
| 20260505083116 | 53 | 360 | 0.0 | 1.0 | 0.00 | 0.00 | 0.00 | 41 | 1012.7 |
| 20260505082129 | 53 | 315 | 0.0 | 1.0 | 0.00 | 0.00 | 0.00 | 41 | 1012.8 |
| 20260505081212 | 53 | 315 | 0.0 | 0.0 | 0.00 | 0.00 | 0.00 | 41 | 1012.9 |
| 20260505080230 | 55 | 112 | 0.0 | 0.0 | 0.00 | 0.00 | 0.00 | 34 | 1012.8 |
| 20260505074330 | 55 | 157 | 0.0 | 0.0 | 0.00 | 0.00 | 0.00 | 36 | 1013.0 |
| 20260505073414 | 55 | 180 | 0.0 | 1.0 | 0.00 | 0.00 | 0.00 | 36 | 1012.9 |
| 20260505073331 | 55 | 180 | 0.0 | 0.0 | 0.00 | 0.00 | 0.00 | 36 | 1012.8 |
| 20260505072316 | 57 | 180 | 0.0 | 0.0 | 0.00 | 0.00 | 0.00 | 34 | 1012.7 |
| 20260505072215 | 57 | 180 | 0.0 | 0.0 | 0.00 | 0.00 | 0.00 | 34 | 1012.9 |
| 20260505071216 | 58 | 180 | 0.0 | 0.0 | 0.00 | 0.00 | 0.00 | 30 | 1012.8 |
| 20260505070229 | 59 | 67 | 0.0 | 0.0 | 0.00 | 0.00 | 0.00 | 27 | 1012.8 |
| 20260505065228 | 58 | 90 | 3.0 | 4.0 | 0.00 | 0.00 | 0.00 | 29 | 1012.7 |
| 20260505064315 | 57 | 45 | 0.0 | 0.0 | 0.00 | 0.00 | 0.00 | 32 | 1012.5 |
| 20260505063412 | 56 | 33 | 1.0 | 2.0 | 0.00 | 0.00 | 0.00 | 33 | 1012.4 |
| 20260505062414 | 56 | 22 | 2.0 | 3.0 | 0.00 | 0.00 | 0.00 | 36 | 1012.2 |
| 20260505062332 | 56 | 38 | 2.0 | 3.0 | 0.00 | 0.00 | 0.00 | 36 | 1012.3 |
| 20260505061414 | 57 | 67 | 0.0 | 0.0 | 0.00 | 0.00 | 0.00 | 33 | 1012.3 |
| 20260505060429 | 58 | 112 | 0.0 | 1.0 | 0.00 | 0.00 | 0.00 | 31 | 1012.2 |
| 20260505055512 | 58 | 247 | 0.0 | 0.0 | 0.00 | 0.00 | 0.00 | 33 | 1012.0 |
| 20260505054511 | 58 | 225 | 0.0 | 0.0 | 0.00 | 0.00 | 0.00 | 34 | 1012.1 |
| 20260505053528 | 59 | 202 | 0.0 | 0.0 | 0.00 | 0.00 | 0.00 | 32 | 1012.0 |
| 20260505052613 | 60 | 180 | 0.0 | 0.0 | 0.00 | 0.00 | 0.00 | 30 | 1012.1 |
| 20260505051611 | 60 | 180 | 0.0 | 0.0 | 0.00 | 0.00 | 0.00 | 31 | 1012.2 |
| 20260505050612 | 61 | 180 | 0.0 | 0.0 | 0.00 | 0.00 | 0.00 | 28 | 1012.2 |
| 20260505040912 | 65 | 199 | 1.0 | 3.0 | 0.00 | 0.00 | 0.00 | 24 | 1011.9 |
| 20260505035929 | 65 | 157 | 1.0 | 2.0 | 0.00 | 0.00 | 0.00 | 24 | 1011.6 |
| 20260505033013 | 67 | 202 | 0.0 | 1.0 | 0.00 | 0.00 | 0.00 | 23 | 1010.9 |
| 20260505031027 | 67 | 213 | 4.0 | 6.0 | 0.00 | 0.00 | 0.00 | 22 | 1010.9 |
| 20260505030028 | 68 | 204 | 3.0 | 4.0 | 0.00 | 0.00 | 0.00 | 21 | 1010.7 |
| 20260505025026 | 69 | 225 | 2.0 | 3.0 | 0.00 | 0.00 | 0.00 | 20 | 1010.5 |
| 20260505024112 | 69 | 230 | 5.0 | 7.0 | 0.00 | 0.00 | 0.00 | 20 | 1010.4 |
| 20260505023210 | 70 | 214 | 3.0 | 5.0 | 0.00 | 0.00 | 0.00 | 19 | 1010.3 |
| 20260505022210 | 71 | 222 | 6.0 | 9.0 | 0.00 | 0.00 | 0.00 | 18 | 1010.1 |
| 20260505021229 | 72 | 225 | 3.0 | 4.0 | 0.00 | 0.00 | 0.00 | 17 | 1010.2 |
| 20260505020312 | 72 | 228 | 6.0 | 10.0 | 0.00 | 0.00 | 0.00 | 17 | 1010.0 |
| 20260505015326 | 72 | 228 | 5.0 | 8.0 | 0.00 | 0.00 | 0.00 | 16 | 1009.8 |
| 20260505014313 | 73 | 236 | 6.0 | 9.0 | 0.00 | 0.00 | 0.00 | 16 | 1009.8 |
| 20260505013412 | 73 | 232 | 13.0 | 22.0 | 0.00 | 0.00 | 0.00 | 16 | 1009.8 |
| 20260505011430 | 72 | 228 | 6.0 | 10.0 | 0.00 | 0.00 | 0.00 | 17 | 1009.9 |
| 20260505011328 | 72 | 221 | 5.0 | 10.0 | 0.00 | 0.00 | 0.00 | 17 | 1010.0 |
| 20260505010311 | 73 | 207 | 7.0 | 10.0 | 0.00 | 0.00 | 0.00 | 17 | 1010.0 |
| 20260505005410 | 73 | 217 | 9.0 | 13.0 | 0.00 | 0.00 | 0.00 | 16 | 1010.0 |
| 20260505004426 | 73 | 217 | 8.0 | 13.0 | 0.00 | 0.00 | 0.00 | 17 | 1009.9 |
| 20260505003512 | 73 | 225 | 11.0 | 15.0 | 0.00 | 0.00 | 0.00 | 17 | 1009.9 |
| 20260505002528 | 73 | 231 | 11.0 | 19.0 | 0.00 | 0.00 | 0.00 | 18 | 1009.9 |
| 20260505001610 | 73 | 228 | 10.0 | 17.0 | 0.00 | 0.00 | 0.00 | 18 | 1009.9 |
| 20260505000629 | 73 | 221 | 11.0 | 18.0 | 0.00 | 0.00 | 0.00 | 20 | 1010.0 |
| 20260504235612 | 74 | 236 | 12.0 | 19.0 | 0.00 | 0.00 | 0.00 | 20 | 1009.9 |
| 20260504235529 | 74 | 233 | 10.0 | 16.0 | 0.00 | 0.00 | 0.00 | 20 | 1009.9 |
| 20260504234511 | 75 | 229 | 12.0 | 19.0 | 0.00 | 0.00 | 0.00 | 21 | 1009.8 |
| 20260504233527 | 75 | 233 | 12.0 | 19.0 | 0.00 | 0.00 | 0.00 | 22 | 1009.8 |
| 20260504232527 | 76 | 223 | 5.0 | 8.0 | 0.00 | 0.00 | 0.00 | 23 | 1009.8 |
| 20260504230511 | 75 | 216 | 9.0 | 14.0 | 0.00 | 0.00 | 0.00 | 24 | 1009.7 |
| 20260504230412 | 75 | 227 | 8.0 | 14.0 | 0.00 | 0.00 | 0.00 | 24 | 1009.8 |
| 20260504225410 | 75 | 234 | 9.0 | 14.0 | 0.00 | 0.00 | 0.00 | 25 | 1009.8 |
| 20260504224510 | 75 | 245 | 9.0 | 18.0 | 0.00 | 0.00 | 0.00 | 25 | 1009.8 |
| 20260504223511 | 76 | 242 | 10.0 | 13.0 | 0.00 | 0.00 | 0.00 | 24 | 1009.7 |
| 20260504223426 | 76 | 209 | 9.0 | 12.0 | 0.00 | 0.00 | 0.00 | 24 | 1009.7 |
| 20260504222425 | 76 | 229 | 14.0 | 19.0 | 0.00 | 0.00 | 0.00 | 24 | 1009.9 |
| 20260504221413 | 76 | 237 | 11.0 | 16.0 | 0.00 | 0.00 | 0.00 | 25 | 1009.7 |
| 20260504220510 | 76 | 238 | 11.0 | 20.0 | 0.00 | 0.00 | 0.00 | 24 | 1009.8 |
| 20260504215528 | 76 | 234 | 10.0 | 14.0 | 0.00 | 0.00 | 0.00 | 23 | 1009.9 |
| 20260504215426 | 76 | 232 | 14.0 | 21.0 | 0.00 | 0.00 | 0.00 | 24 | 1009.9 |
| 20260504214511 | 76 | 233 | 13.0 | 21.0 | 0.00 | 0.00 | 0.00 | 23 | 1009.9 |
| 20260504213528 | 76 | 210 | 13.0 | 21.0 | 0.00 | 0.00 | 0.00 | 22 | 1010.0 |